METEOR 2-5 DEB, 39608

Orbit data source: Space-Track

METEOR 2-5 DEB, 39608 is space debris in LEO originally from a launch on Wed, 31 Oct 1979 UTC launched from the Plesetsk Missile And Space Complex (PKMTR). Debris objects in space refer to the collection of defunct objects orbiting the Earth. Examples of debris include non-operational satellites, rocket bodies, and fragments generated from explosions, collisions, or faulty payload assembly.

Loading next visibility...
Identifier
39608, 1979-095CK
Orbit
LEO
Country
Flag of CISCIS
Related business
Manufacturer
Unknown
Mission
Spacecraft
Bus & Motor
Unknown
Mass
Unknown
Launch date (UTC)
1979-10-31 (47 years ago)
Launch vehicle
Unknown
Launch site
Plesetsk Missile And Space Complex (PKMTR)
Object type
Payload
Rocket body
Debris
Shape & HBR
Unknown shape, 0.1 m
Radar Cross Section
Small (<0.1 m²)

Expand to show TLE details & history
Last TLE update: 1 week ago

TLE from 1 week ago
0 METEOR 2-5 DEB
1 39608U 79095CK  26167.60854974  .00006637  00000-0  19924-2 0  9990
2 39608  81.2007 125.5896 0019619  24.0061 336.2038 14.42536713602594
Epoch: 2026-06-16T14:36Z
TLE epoch observation values (Epoch: 2026-06-16T14:36:18.697Z)
Latitude
Longitude
1.63356°
Altitude
740.278 km
Speed
7.491 km/s
True Right ascension
08h 22m 21s
True Declination
0° 00' 00"
Sunlit
Object was in daylight at epoch
Visualization orbit readout
Latitude
Unknown
Longitude
Unknown
Altitude
Unknown
Speed
Unknown
Apparent Right ascension
Unknown
Apparent Declination
Unknown
Sunlit
N/A
Visualization observer readout
Local Sidereal Time
15:40:15
Azimuth
Unknown
Elevation
Unknown
Doppler factor
Unknown
Orbital elements
Apogee altitude
761.242 km
Perigee altitude
733.283 km
Semi-major axis
7,125.399 km
Eccentricity
0.00196
Inclination
81.2007°
RAAN
125.5896°
Arg. of periapsis
24.0061°
True anomaly
336.11289°
Mean anomaly
336.2038°
Eccentric anomaly
336.15836°
Mean motion
3.60852 °/min
Orbital period
99.76 mins
BSTAR
0.0019924
Loading maneuver chart data...
Computing Atmospheric mass density...

Documentation

Showing up to 5 results
|